Santa Fe, NM

7:02 PM MDT on March 27, 2017 (GMT -0600)
Santa Fe Municipal

Weather History for KSAF - November, 2013

Change the Weather History Date:

Monday, November 4, 2013

  Actual Average Record
Temperature  
Mean Temperature 44 °F -  
Max Temperature 59 °F 64 °F 74 °F (1977)
Min Temperature 28 °F 31 °F 26 °F (2003)
Degree Days  
Heating Degree Days 22    
Moisture  
Dew Point 30 °F    
Average Humidity 58    
Maximum Humidity 85    
Minimum Humidity 29    
Precipitation  
Precipitation 0.38 in - - ()
Sea Level Pressure  
Sea Level Pressure 29.81 in    
Wind  
Wind Speed 6 mph (SSE)    
Max Wind Speed 30 mph    
Max Gust Speed 43 mph    
Visibility 10 miles    
Events Rain , Thunderstorm    
Averages and records for this station are not official NWS values.
T = Trace of Precipitation, MM = Missing Value Source: NWS Daily Summary

Daily Weather History Graph

Daily Weather History Graph

Search for Another Location

Airport or City:

Trip Planner

Search our weather history database for the weather conditions in past years. The results will help you decide how hot, cold, wet, or windy it might be!

Date:

Astronomy

Nov. 04, 2013 Rise Set
Actual Time 6:29 AM MST 5:05 PM MST
Civil Twilight 6:02 AM MST 5:32 PM MST
Nautical Twilight 5:32 AM MST 6:02 PM MST
Astronomical Twilight 5:02 AM MST 6:32 PM MST
Moon 7:40 AM MST (11/4) 6:15 PM MST (11/4)
Length of Visible Light 11h 29m
Length of Day
10h 36m
New Moon, 2% of the Moon is Illuminated
Nov 4
New Moon
Nov 9
First Quarter
Nov 17
Full
Nov 25
Last Quarter
Dec 2
New

Hourly Weather History & Observations

Time (MST) Temp. Windchill Dew Point Humidity Pressure Visibility Wind Dir Wind Speed Gust Speed Precip Events Conditions
12:53 AM 37.9 °F - 27.0 °F 65% 29.77 in 10.0 mi Calm Calm - N/A   Clear
1:53 AM 39.0 °F 36.8 °F 27.0 °F 62% 29.77 in 10.0 mi Variable 3.5 mph - N/A   Clear
2:53 AM 41.0 °F 39.0 °F 28.0 °F 60% 29.74 in 10.0 mi Variable 3.5 mph - N/A   Clear
3:53 AM 35.1 °F 30.1 °F 27.0 °F 72% 29.78 in 10.0 mi East 5.8 mph - N/A   Clear
4:53 AM 33.1 °F - 26.1 °F 75% 29.81 in 10.0 mi Calm Calm - N/A   Clear
5:53 AM 28.9 °F 25.2 °F 25.0 °F 85% 29.87 in 10.0 mi NNW 3.5 mph - N/A   Clear
6:53 AM 28.0 °F 20.8 °F 24.1 °F 85% 29.90 in 10.0 mi North 6.9 mph - N/A   Clear
7:53 AM 37.9 °F - 28.9 °F 70% 29.90 in 10.0 mi Calm Calm - N/A   Clear
8:53 AM 46.0 °F 44.8 °F 30.0 °F 54% 29.88 in 10.0 mi South 3.5 mph - N/A   Clear
9:53 AM 50.0 °F - 32.0 °F 50% 29.87 in 10.0 mi Calm Calm - N/A   Clear
10:53 AM 52.0 °F - 30.0 °F 43% 29.86 in 10.0 mi South 5.8 mph - N/A   Clear
11:53 AM 55.9 °F - 25.0 °F 30% 29.83 in 10.0 mi SW 9.2 mph - N/A   Clear
12:53 PM 55.9 °F - 26.1 °F 32% 29.80 in 10.0 mi Calm Calm - N/A   Clear
1:53 PM 59.0 °F - 27.0 °F 29% 29.75 in 10.0 mi South 8.1 mph - N/A   Partly Cloudy
2:53 PM 59.0 °F - 28.0 °F 31% 29.73 in 10.0 mi WSW 9.2 mph - N/A   Scattered Clouds
3:53 PM 59.0 °F - 30.0 °F 33% 29.76 in 10.0 mi WSW 10.4 mph - N/A   Scattered Clouds
4:53 PM 54.0 °F - 30.9 °F 41% 29.78 in 10.0 mi SSE 3.5 mph - N/A   Mostly Cloudy
5:53 PM 51.1 °F - 33.1 °F 50% 29.77 in 10.0 mi ESE 25.3 mph 33.4 mph N/A   Scattered Clouds
6:53 PM 50.0 °F - 33.1 °F 52% 29.75 in 10.0 mi ESE 29.9 mph 42.6 mph N/A Thunderstorm Overcast
7:25 PM 50.0 °F - 33.8 °F 54% 29.92 in 8.0 mi East 10.4 mph 25.3 mph 0.00 in Rain , Thunderstorm Light Thunderstorms and Rain
7:53 PM 44.1 °F 39.0 °F 35.1 °F 71% 29.84 in 8.0 mi SSE 9.2 mph 20.7 mph 0.21 in Rain , Thunderstorm Light Rain
8:53 PM 43.0 °F 37.7 °F 33.1 °F 68% 29.81 in 10.0 mi SSE 9.2 mph - 0.15 in Thunderstorm Overcast
9:04 PM 42.8 °F 38.6 °F 33.8 °F 70% 29.93 in 10.0 mi South 6.9 mph - 0.02 in   Overcast
9:53 PM 43.0 °F 34.2 °F 35.1 °F 74% 29.77 in 10.0 mi SE 20.7 mph 29.9 mph 0.02 in   Scattered Clouds
10:53 PM 43.0 °F 36.4 °F 35.1 °F 74% 29.76 in 10.0 mi SSE 12.7 mph 18.4 mph N/A   Mostly Cloudy
11:53 PM 44.1 °F 37.1 °F 35.1 °F 71% 29.71 in 10.0 mi SE 15.0 mph - N/A   Mostly Cloudy